Regional Weather Roundup
Issued by NWS

Home | Current Version | Previous Version | Graphics & Text | Print | Product List | Glossary On
Versions: 1 2 3 4 5 6 7 8 9 10 11 12 13 14 15 16 17 18 19 20 21 22 23 24 25 26 27 28
000
ASUS45 KBOI 261510
RWRID

IDAHO REGIONAL WEATHER ROUNDUP
NATIONAL WEATHER SERVICE BOISE ID
900 AM MDT FRI MAY 26 2017

NOTE: "FAIR" INDICATES FEW OR NO CLOUDS BELOW 12000 FEET
WITH NO SIGNIFICANT WEATHER AND/OR OBSTRUCTIONS TO VISIBILITY

IDZ012-014-261600-
SOUTHWEST IDAHO


CITY           SKY/WX    TMP DP  RH WIND       PRES   REMARKS
BOISE          MOSUNNY   51  43  74 W8        29.88R
CALDWELL       MOSUNNY   55  42  61 W9        29.89R
MOUNTAIN HOME  DRIZZLE   50  49  99 W8        29.88R
$$

IDZ016-017-261600-
SOUTHCENTRAL IDAHO


CITY           SKY/WX    TMP DP  RH WIND       PRES   REMARKS
BURLEY         CLOUDY    45  42  89 W5        29.87R
JEROME         CLOUDY    46  42  86 S6        29.88R
TWIN FALLS     CLOUDY    46  42  86 SW8       29.88R
$$

IDZ019>023-261600-
SOUTHEAST IDAHO


CITY           SKY/WX    TMP DP  RH WIND       PRES   REMARKS
IDAHO FALLS    CLOUDY    45  42  89 CALM      29.85F
POCATELLO      LGT RAIN  45  41  86 CALM      29.85S
REXBURG        LGT RAIN  43  38  82 NE8       29.85S
$$

IDZ006-010-011-018-031-032-261600-
CENTRAL IDAHO MOUNTAINS


CITY           SKY/WX    TMP DP  RH WIND       PRES   REMARKS
MCCALL         PTSUNNY   46  38  73 CALM      29.88R
HAILEY         RAIN      36  36 100 W5        29.90R WCI  32
STANLEY        NOT AVBL
SALMON         MOSUNNY   48  39  71 CALM      29.89S
CHALLIS        CLOUDY    46  37  71 N6        29.88R
$$

IDZ002-004-006-007-026-261600-
NORTHERN IDAHO


CITY           SKY/WX    TMP DP  RH WIND       PRES   REMARKS
LEWISTON       SUNNY     55  45  68 SE5       29.93R
LOWELL           N/A     49  43  80 CALM      29.94F
COEUR D`ALENE  SUNNY     55  44  66 NE13      29.94S
MULLAN PASS    SUNNY     44  33  65 VRB3      29.97R
$$




USA.gov is the U.S. government's official web portal to all federal, state and local government web resources and services.